| time (UTC) | temp C | wind direction | speed KPH | gust KPH | rain 1hr cm | rain 24hr cm | rain mn cm | humidity % | barometer mb |
| 20260504174141 | 29 | 64 | 6.4 | 14.5 | 0.00 | 0.00 | 0.00 | 59 | 1014.1 |
| 20260504173241 | 28 | 69 | 6.4 | 20.9 | 0.00 | 0.00 | 0.00 | 61 | 1014.4 |
| 20260504172341 | 29 | 68 | 4.8 | 14.5 | 0.00 | 0.00 | 0.00 | 61 | 1014.6 |
| 20260504171441 | 28 | 70 | 6.4 | 17.7 | 0.00 | 0.00 | 0.00 | 61 | 1014.7 |
| 20260504160241 | 27 | 63 | 6.4 | 20.9 | 0.00 | 0.00 | 0.00 | 66 | 1015.4 |
| 20260504150841 | 26 | 60 | 8.0 | 19.3 | 0.00 | 0.00 | 0.00 | 69 | 1015.7 |
| 20260504140541 | 24 | 61 | 6.4 | 16.1 | 0.00 | 0.00 | 0.00 | 73 | 1015.5 |
| 20260504130241 | 22 | 62 | 6.4 | 14.5 | 0.00 | 0.00 | 0.00 | 80 | 1015.0 |
| 20260504110540 | 21 | 38 | 3.2 | 16.1 | 0.00 | 0.00 | 0.00 | 87 | 1014.0 |
| 20260504081437 | 21 | 62 | 4.8 | 11.3 | 0.00 | 0.00 | 0.00 | 86 | 1013.8 |
| 20260504080536 | 21 | 57 | 3.2 | 11.3 | 0.00 | 0.00 | 0.00 | 86 | 1013.9 |
| 20260504070236 | 21 | 68 | 4.8 | 14.5 | 0.00 | 0.00 | 0.00 | 86 | 1014.4 |
| 20260504050536 | 21 | 58 | 3.2 | 11.3 | 0.00 | 0.00 | 0.00 | 88 | 1015.3 |
| 20260504045636 | 21 | 65 | 4.8 | 12.9 | 0.00 | 0.00 | 0.00 | 87 | 1015.0 |
| 20260504044736 | 21 | 68 | 4.8 | 14.5 | 0.00 | 0.00 | 0.00 | 87 | 1014.7 |
| 20260504043837 | 21 | 57 | 3.2 | 11.3 | 0.00 | 0.00 | 0.00 | 86 | 1015.5 |
| 20260504042935 | 21 | 61 | 3.2 | 8.0 | 0.00 | 0.00 | 0.00 | 86 | 1015.5 |
| 20260504040236 | 21 | 65 | 4.8 | 11.3 | 0.00 | 0.00 | 0.00 | 86 | 1015.3 |
| 20260504035335 | 21 | 63 | 3.2 | 8.0 | 0.00 | 0.00 | 0.00 | 86 | 1015.5 |
| 20260504034435 | 21 | 70 | 3.2 | 12.9 | 0.00 | 0.00 | 0.00 | 86 | 1015.7 |
| 20260504033536 | 21 | 67 | 4.8 | 9.7 | 0.00 | 0.00 | 0.00 | 86 | 1015.5 |
| 20260504030836 | 21 | 70 | 3.2 | 11.3 | 0.00 | 0.10 | 0.00 | 87 | 1015.8 |
| 20260504025936 | 21 | 56 | 3.2 | 9.7 | 0.00 | 0.10 | 0.00 | 87 | 1015.7 |
| 20260504024136 | 21 | 65 | 4.8 | 11.3 | 0.00 | 0.13 | 0.00 | 87 | 1015.6 |
| 20260504023235 | 21 | 63 | 4.8 | 14.5 | 0.00 | 0.18 | 0.00 | 87 | 1015.7 |
| 20260504022336 | 21 | 65 | 4.8 | 16.1 | 0.00 | 0.25 | 0.00 | 87 | 1015.8 |
| 20260504020536 | 21 | 65 | 3.2 | 16.1 | 0.00 | 0.36 | 0.00 | 87 | 1015.8 |
| 20260504014736 | 21 | 67 | 4.8 | 14.5 | 0.00 | 0.69 | 0.00 | 86 | 1015.6 |
| 20260504012936 | 21 | 65 | 4.8 | 14.5 | 0.00 | 0.74 | 0.00 | 87 | 1015.2 |
| 20260504011136 | 21 | 65 | 6.4 | 12.9 | 0.00 | 0.74 | 0.00 | 86 | 1015.2 |
| 20260504010236 | 21 | 68 | 6.4 | 17.7 | 0.00 | 0.76 | 0.00 | 85 | 1015.1 |
| 20260504005336 | 22 | 63 | 6.4 | 16.1 | 0.00 | 0.86 | 0.00 | 83 | 1015.2 |
| 20260504003536 | 22 | 61 | 6.4 | 14.5 | 0.00 | 0.94 | 0.00 | 84 | 1014.9 |
| 20260504002636 | 22 | 59 | 4.8 | 12.9 | 0.00 | 0.97 | 0.00 | 86 | 1014.5 |
| 20260504000836 | 22 | 67 | 4.8 | 14.5 | 0.00 | 0.97 | 0.00 | 86 | 1014.6 |
| 20260503235936 | 22 | 61 | 4.8 | 11.3 | 0.00 | 0.99 | 0.00 | 86 | 1014.5 |
| 20260503235036 | 22 | 64 | 3.2 | 12.9 | 0.00 | 0.99 | 0.00 | 86 | 1014.4 |
| 20260503234136 | 22 | 64 | 4.8 | 12.9 | 0.00 | 1.09 | 0.00 | 85 | 1014.3 |
| 20260503233236 | 22 | 63 | 6.4 | 20.9 | 0.00 | 1.19 | 0.00 | 84 | 1014.1 |
| 20260503232336 | 22 | 61 | 6.4 | 17.7 | 0.00 | 1.37 | 0.00 | 84 | 1014.0 |
| 20260503231436 | 22 | 65 | 8.0 | 20.9 | 0.00 | 1.37 | 0.00 | 85 | 1013.9 |
| 20260503230536 | 22 | 61 | 6.4 | 16.1 | 0.00 | 1.37 | 0.00 | 85 | 1013.9 |
| 20260503225636 | 23 | 66 | 4.8 | 14.5 | 0.00 | 1.37 | 0.00 | 84 | 1013.8 |
| 20260503224736 | 23 | 59 | 4.8 | 14.5 | 0.00 | 1.37 | 0.00 | 84 | 1013.6 |
| 20260503223836 | 23 | 67 | 4.8 | 12.9 | 0.00 | 1.37 | 0.00 | 84 | 1013.6 |
| 20260503222936 | 23 | 65 | 4.8 | 12.9 | 0.00 | 1.42 | 0.00 | 83 | 1013.6 |
| 20260503222035 | 23 | 65 | 6.4 | 16.1 | 0.00 | 1.42 | 0.00 | 83 | 1013.6 |
| 20260503221136 | 23 | 65 | 4.8 | 14.5 | 0.00 | 1.42 | 0.00 | 83 | 1013.6 |
| 20260503215336 | 23 | 65 | 6.4 | 16.1 | 0.00 | 1.42 | 0.00 | 81 | 1013.5 |
| 20260503214436 | 23 | 55 | 3.2 | 12.9 | 0.00 | 1.42 | 0.00 | 81 | 1013.6 |
| 20260503212636 | 23 | 62 | 4.8 | 16.1 | 0.00 | 1.42 | 0.00 | 81 | 1013.8 |
| 20260503211736 | 23 | 60 | 3.2 | 14.5 | 0.00 | 1.42 | 0.00 | 82 | 1014.0 |
| 20260503205936 | 23 | 67 | 6.4 | 17.7 | 0.00 | 1.42 | 0.00 | 80 | 1013.9 |
| 20260503205035 | 23 | 64 | 4.8 | 12.9 | 0.00 | 1.42 | 0.00 | 81 | 1014.1 |
| 20260503204136 | 23 | 63 | 4.8 | 17.7 | 0.00 | 1.42 | 0.00 | 82 | 1014.0 |
| 20260503203235 | 23 | 70 | 3.2 | 11.3 | 0.00 | 1.42 | 0.00 | 81 | 1014.2 |
| 20260503202335 | 23 | 65 | 6.4 | 16.1 | 0.00 | 1.42 | 0.00 | 81 | 1014.3 |
| 20260503201436 | 24 | 66 | 4.8 | 12.9 | 0.00 | 1.42 | 0.00 | 80 | 1014.2 |
| 20260503200535 | 24 | 65 | 4.8 | 12.9 | 0.00 | 1.42 | 0.00 | 81 | 1014.2 |
| 20260503195636 | 24 | 67 | 6.4 | 16.1 | 0.00 | 1.42 | 0.00 | 80 | 1014.4 |
| 20260503194735 | 24 | 62 | 4.8 | 17.7 | 0.00 | 1.42 | 0.00 | 80 | 1014.4 |
| 20260503193835 | 25 | 62 | 6.4 | 16.1 | 0.00 | 1.42 | 0.00 | 79 | 1014.5 |
| 20260503191135 | 25 | 68 | 6.4 | 14.5 | 0.00 | 1.42 | 0.00 | 77 | 1014.9 |
| 20260503190236 | 25 | 75 | 4.8 | 12.9 | 0.00 | 1.42 | 0.00 | 78 | 1015.0 |
| 20260503185335 | 25 | 64 | 4.8 | 12.9 | 0.00 | 1.42 | 0.00 | 79 | 1015.0 |
| 20260503183535 | 25 | 61 | 6.4 | 17.7 | 0.00 | 1.42 | 0.00 | 76 | 1015.3 |
| 20260503182636 | 25 | 56 | 6.4 | 20.9 | 0.00 | 1.42 | 0.00 | 79 | 1015.4 |
| 20260503181736 | 24 | 63 | 6.4 | 16.1 | 0.00 | 1.42 | 0.00 | 80 | 1015.4 |
| 20260503180836 | 24 | 60 | 8.0 | 19.3 | 0.00 | 1.42 | 0.00 | 79 | 1015.3 |
| 20260503175936 | 24 | 60 | 6.4 | 24.1 | 0.00 | 1.42 | 0.00 | 79 | 1015.3 |
| 20260503175035 | 24 | 59 | 8.0 | 22.5 | 0.00 | 1.42 | 0.00 | 80 | 1015.4 |